Regional Weather Roundup
Issued by NWS

Home | Current Version | Previous Version | Text Only | Print | Product List | Glossary Off
Versions: 1 2 3 4 5 6 7 8 9 10 11 12 13 14 15 16 17 18 19 20 21 22 23 24 25 26 27 28 29 30 31 32 33 34 35 36 37 38 39 40 41 42 43 44 45 46 47 48 49 50

835
ASUS43 KDMX 062008
RWRIA

WEATHER ROUNDUP FOR IOWA
NATIONAL WEATHER SERVICE DES MOINES IA
200 PM CST SAT FEB 06 2016

NOTE: "FAIR" INDICATES FEW OR NO CLOUDS BELOW 12,000 FEET WITH NO
SIGNIFICANT WEATHER AND/OR OBSTRUCTIONS TO VISIBILITY.

* - THESE STATIONS ARE NOT NWS STATIONS...THUS NOT UNDER NWS
QUALITY CONTROL.  THEY ALSO DO NOT REPORT WEATHER SUCH
AS PRECIPITATION OR FOG.

IAZ001>003-012>014-020>022-031>034-043>046-062100-
   NORTHWEST IOWA

CITY           SKY/WX    TMP DP  RH WIND       PRES   REMARKS
CARROLL *      SUNNY     32  30  93 SW15G21   30.10F WCI  22
CHEROKEE *     MOSUNNY   36  28  75 S15G23    30.04F WCI  26
DENISON *      SUNNY     34  28  80 S14       30.07F WCI  24
LE MARS *      SUNNY     34  30  86 S14       30.03F WCI  24
ORANGE CITY *  CLOUDY    30  28  93 S14       29.99F WCI  20
SHELDON *      SUNNY     32  27  80 S17       29.98F WCI  21
SIOUX CITY     MOSUNNY   38  26  62 S14       30.04F WCI  30
SPENCER        SUNNY     35  27  72 S15       30.01F WCI  25
STORM LAKE *   MIX PCPN  32  32 100 SW17      30.04F WCI  21
$$

IAZ055>058-069>071-079>083-090>094-062100-
   SOUTHWEST IOWA

CITY           SKY/WX    TMP DP  RH WIND       PRES   REMARKS
ATLANTIC *     SUNNY     36  30  80 S13       30.14F WCI  27
AUDUBON *      SUNNY     34  30  86 S10       30.12F WCI  26
CLARINDA *     MOSUNNY   43  34  70 SW14      30.20F
COUNCIL BLFS * SUNNY     37  28  70 SW14      30.12F WCI  29
CRESTON *      MOSUNNY   37  32  81 SW12      30.17F WCI  30
HARLAN  *      SUNNY     34  30  86 S13       30.15F WCI  25
LAMONI         CLOUDY    32  31  96 SW12      30.20F WCI  23
RED OAK *      SUNNY     37  32  81 SW14      30.16F WCI  29
SHENANDOAH *   SUNNY     41  36  81 SW14      30.18F
$$

IAZ047>049-059>061-072>074-084-062100-
   CENTRAL IOWA

CITY           SKY/WX    TMP DP  RH WIND       PRES   REMARKS
AMES           CLOUDY    30  28  92 SW12      30.14F WCI  20
ANKENY *       MOSUNNY   34  30  86 S9        30.15F WCI  26
BOONE *        CLOUDY    30  28  93 SW13      30.12F WCI  20
CHARITON *     CLOUDY    36  32  87 SW12      30.18F WCI  27
DES MOINES     MOSUNNY   35  28  75 SW10      30.16F WCI  27
GRINNELL*      CLOUDY    30  30 100 SW12      30.16F FOG     WCI  21
KNOXVILLE *    CLOUDY    34  30  86 W10       30.17F WCI  26
MARSHALLTOWN   CLOUDY    30  27  88 SW13      30.14F FOG     WCI  20
NEWTON *       CLOUDY    32  32 100 SW14      30.15F WCI  22
PELLA *        CLOUDY    32  30  93 SW13      30.19F WCI  22
$$

IAZ004>006-015-016-023>025-035-036-062100-
   NORTH CENTRAL IOWA

CITY           SKY/WX    TMP DP  RH WIND       PRES   REMARKS
ALGONA *       SUNNY     32  30  93 S20       30.05F WCI  20
CLARION *      CLOUDY    30  28  93 SW18      30.09F FOG     WCI  18
ESTHERVILLE    MOSUNNY   33  27  78 SW18      30.01F WCI  22
FORT DODGE *   CLOUDY    32  27  80 S16       30.10F WCI  21
MASON CITY     CLOUDY    29  27  92 SW18      30.09F FOG     WCI  16
FOREST CITY *  CLOUDY    30  30 100 S12       30.07F FOG     WCI  21
WEBSTER CITY * CLOUDY    30  28  93 SW16      30.09F FOG     WCI  19
IOWA FALLS *   CLOUDY    32  28  86 SW14      30.12F FOG     WCI  22
$$

IAZ007>011-017>019-026>030-037>042-050>054-066-062100-
   NORTHEAST IOWA

CITY           SKY/WX    TMP DP  RH WIND       PRES   REMARKS
CEDAR RAPIDS   PTSUNNY   39  33  79 SW13      30.14F WCI  31
CHARLES CITY * CLOUDY    28  28 100 S14       30.10F WCI  17
CLINTON *      SUNNY     39  30  70 W14       30.16F WCI  31
DECORAH *      CLOUDY    30  27  86 SW9       30.10F WCI  22
DUBUQUE        CLOUDY    30  27  88 SW10      30.14F WCI  21
MONTICELLO *   CLOUDY    32  28  86 W7        30.15F WCI  26
OELWEIN *      CLOUDY    30  28  93 SW13      30.13F WCI  20
WATERLOO       CLOUDY    30  27  88 W12       30.14F FOG     WCI  20
$$

IAZ064-065-067-068-078-062100-
   EAST CENTRAL IOWA

CITY           SKY/WX    TMP DP  RH WIND       PRES   REMARKS
DAVENPORT      SUNNY     41  30  65 SW9       30.16F
IOWA CITY      PTSUNNY   40  31  70 SW9       30.17F WCI  34
MT. PLEASANT * SUNNY     46  34  61 SW13      30.17F
MUSCATINE *    SUNNY     43  30  61 SW9       30.17F
QUAD CITIES    SUNNY     43  27  53 SW9       30.15F
$$

IAZ062-063-075>077-085>089-095>099-062100-
   SOUTHEAST IOWA

CITY           SKY/WX    TMP DP  RH WIND       PRES   REMARKS
BURLINGTON     SUNNY     45  29  53 SW9       30.17F
FAIRFIELD *    SUNNY     43  32  65 SW12      30.16F
FORT MADISON * SUNNY     45  28  53 SW6       30.18F
KEOKUK *       SUNNY     46  28  49 SW10      30.17F
OSKALOOSA *      N/A     41  32  70 W14       30.17F
CENTERVILLE *    N/A    N/A N/A N/A MISG        N/A
OTTUMWA        SUNNY     43  32  65 W14       30.16F
WASHINGTON *   SUNNY     41  34  75 W13       30.17F
$$

ABBREVIATIONS USED IN REMARKS
   TC - TEMPERATURES IN CELSIUS
  WCI - WIND CHILL INDEX
   HX - HEAT INDEX
  VSB - VISIBILITY
$$





USA.gov is the U.S. government's official web portal to all federal, state and local government web resources and services.